Station RCKM4 - 9076024 - Rock Cut, MI Image indicating link to RSS feed of recent meteorological observations for station RCKM4


Conditions at RCKM4 as of
(9:48 pm EDT on 04/20/2024)
0148 GMT on 04/21/2024:
     

Click on the graph icon in the table below to see a time series plot of the last five days of that observation.

5-day plot - Wind Direction Wind Direction (WDIR):WNW ( 290 deg true )
5-day plot - Wind Speed Wind Speed (WSPD): 2.9 kts
5-day plot - Wind Gust Wind Gust (GST): 4.1 kts
5-day plot - Atmospheric Pressure Atmospheric Pressure (PRES):30.01 in
5-day plot - Water Temperature Water Temperature (WTMP): 41.0 °F
5-day plot - Wind Speed at 10 Meters Wind Speed at 10 meters (WSPD10M): 3.9 kts
5-day plot - Wind Speed at 20 Meters Wind Speed at 20 meters (WSPD20M): 3.9 kts
5-day plot -  Wind Speed, Wind Gust and Atmospheric Pressure Combined plot of Wind Speed, Gust, and Air Pressure
NOS Water Level Observation Network Water Level
Previous observations
TIME
(EDT)
5-day plot - Wind Direction
WDIR
 
5-day plot - Wind Speed
WSPD
kts
5-day plot - Wind Gust
GST
kts
5-day plot - Wave Height
WVHT
ft
5-day plot - Dominant Wave Period
DPD
sec
5-day plot - Average Wave Period
APD
sec
5-day plot - Mean Wave Direction
MWD
 
5-day plot - Atmospheric Pressure
PRES
in
5-day plot - Pressure Tendency
PTDY
in
5-day plot - Air Temperature
ATMP
°F
5-day plot - Water Temperature
WTMP
°F
5-day plot - Dew Point
DEWP
°F
5-day plot - Salinity
SAL
psu
5-day plot - Visibility
VIS
nmi
5-day plot - Tide (above MLLW)
TIDE
ft
2024-04-20 09:42 pm W 2.9 4.1----30.01-- 41.0----
2024-04-20 09:36 pmWSW 2.9 6.0----30.01-- 41.0----
2024-04-20 09:30 pm W 2.9 5.1----30.01-- 41.0----
2024-04-20 09:24 pm W 2.9 6.0----30.01-- 41.0----
2024-04-20 09:18 pm W 5.1 6.0----30.01-- 41.0----
2024-04-20 09:12 pm W 4.1 7.0----30.00-- 41.0----
2024-04-20 09:06 pm W 6.0 9.9----30.00-- 41.0----
2024-04-20 09:00 pm W 4.1 8.0----30.00+0.02- 41.0----
2024-04-20 08:54 pm W 6.0 8.0----30.00-- 41.0----
2024-04-20 08:48 pm W 6.0 8.9----30.00-- 41.0----
2024-04-20 08:42 pm W 5.1 8.0----30.00-- 41.0----
2024-04-20 08:36 pm W 6.0 9.9----30.00-- 41.0----
2024-04-20 08:30 pmWNW 7.0 11.1----30.00-- 41.0----
2024-04-20 08:24 pm W 4.1 12.0----29.99-- 41.0----
2024-04-20 08:18 pmWNW 6.0 12.0------- 41.0----
2024-04-20 08:12 pm W 5.1 8.9------- 41.0----
2024-04-20 08:06 pm W 4.1 8.9------- 41.0----
2024-04-20 08:00 pm W 5.1 9.9----30.00+0.03- 41.0----
2024-04-20 07:54 pmWNW 8.0 13.0----30.00-- 41.0----
2024-04-20 07:48 pm W 6.0 11.1----29.99-- 41.2----
2024-04-20 07:42 pm W 7.0 11.1----29.99-- 41.2----
2024-04-20 07:36 pm W 6.0 9.9----29.99-- 41.2----
2024-04-20 07:30 pm W 5.1 9.9----29.99-- 41.4----
2024-04-20 07:24 pmWNW 8.9 11.1----29.99-- 41.2----
2024-04-20 07:18 pmWNW 9.9 14.0----29.99-- 41.0----
2024-04-20 07:12 pmWNW 8.9 15.9----29.99-- 41.0----
2024-04-20 07:06 pmWNW 9.9 13.0----29.99-- 41.0----
2024-04-20 07:00 pmWNW 14.0 17.1----29.99+0.03- 41.0----
2024-04-20 06:54 pmWNW 11.1 15.0----29.99-- 41.2----
2024-04-20 06:48 pmWNW 8.0 14.0----29.99-- 41.2----
2024-04-20 06:42 pm W 13.0 17.1----29.99-- 41.2----
2024-04-20 06:36 pm W 11.1 15.9----29.99-- 41.2----
2024-04-20 06:30 pm W 13.0 17.1----29.99-- 41.4----
2024-04-20 06:24 pmWNW 9.9 15.0----29.99-- 41.5----
2024-04-20 06:18 pmWNW 15.0 20.0----29.99-- 41.5----
2024-04-20 06:12 pm W 11.1 19.0----29.98-- 41.2----
2024-04-20 06:06 pmWNW 15.0 22.0----29.98-- 41.2----
2024-04-20 06:00 pm-------29.98+0.03- 41.2----
2024-04-20 05:54 pm-------29.98-- 41.2----
2024-04-20 05:48 pmWNW 17.1 21.0----29.98-- 41.2----
2024-04-20 05:42 pmWNW 15.0 21.0----29.98-- 41.2----
2024-04-20 05:36 pmWNW 15.0 24.1----29.98-- 41.5----
2024-04-20 05:30 pmWNW 17.1 25.1----29.98-- 41.0----
2024-04-20 05:24 pm NW 15.9 25.1----29.97-- 41.0----
2024-04-20 05:18 pmWNW 18.1 22.9----29.97-- 41.0----
2024-04-20 05:12 pm W 14.0 24.1----29.98-- 41.0----
2024-04-20 05:06 pmWNW 13.0 20.0----29.98-- 41.0----
2024-04-20 05:00 pm NW 18.1 22.0----29.97+0.03- 41.0----
2024-04-20 04:54 pmWNW 12.0 20.0----29.97-- 41.0----
2024-04-20 04:48 pmWNW 14.0 22.0----29.97-- 41.0----
2024-04-20 04:42 pmWNW 14.0 22.0----29.97-- 41.0----
2024-04-20 04:36 pmWNW 14.0 21.0----29.97-- 41.0----
2024-04-20 04:30 pmWNW 15.0 22.9----29.97-- 41.0----
2024-04-20 04:24 pmWNW 15.0 21.0----29.97-- 41.0----
2024-04-20 04:18 pm NW 17.1 28.0------- 41.0----
2024-04-20 04:12 pm NW 19.0 27.0------- 41.0----
2024-04-20 04:06 pmWNW 22.0 28.0------- 41.0----
2024-04-20 04:00 pm-------29.96+0.03- 41.0----
2024-04-20 03:54 pm-------29.96-- 41.0----
2024-04-20 03:48 pmWNW 15.0 25.1----29.96-- 41.0----
2024-04-20 03:42 pm NW 19.0 26.0----29.96-- 41.0----
2024-04-20 03:36 pmWNW 19.0 28.0----29.96-- 41.0----
2024-04-20 03:30 pmWNW 21.0 28.0----29.96-- 41.0----
2024-04-20 03:24 pmWNW 21.0 28.0----29.96-- 41.0----
2024-04-20 03:18 pmWNW 19.0 27.0----29.96-- 41.0----
2024-04-20 03:12 pmWNW 19.0 25.1----29.95-- 41.0----
2024-04-20 03:06 pmWNW 18.1 26.0----29.96-- 41.0----
2024-04-20 03:00 pm NW 20.0 28.9----29.96+0.03------
2024-04-20 02:54 pm NW 19.0 26.0----29.95-------
2024-04-20 02:48 pmWNW 20.0 25.1----29.95-- 41.0----
2024-04-20 02:42 pm NW 20.0 25.1----29.95-- 41.0----
2024-04-20 02:36 pmWNW 15.9 25.1----29.95-- 41.0----
2024-04-20 02:30 pmWNW 18.1 28.0------- 41.0----
2024-04-20 02:24 pmWNW 22.0 28.9------- 41.0----
2024-04-20 02:18 pm NW 19.0 28.0----29.94-- 41.0----
2024-04-20 02:12 pmWNW 17.1 28.9----29.94-- 41.2----
2024-04-20 02:06 pmWNW 15.9 22.9----29.94-- 41.2----
2024-04-20 02:00 pmWNW 19.0 25.1----29.94+0.02- 41.4----
2024-04-20 01:54 pm NW 20.0 27.0----29.94-- 41.4----
2024-04-20 01:48 pmWNW 14.0 19.0----29.94-- 41.5----
2024-04-20 01:42 pmWNW 15.0 26.0----29.94-- 41.0----
2024-04-20 01:36 pmWNW 17.1 29.9----29.94-- 41.0----
2024-04-20 01:30 pmWNW 22.0 26.0----29.94-- 41.0----
2024-04-20 01:24 pmWNW 15.9 28.0----29.93-- 41.0----
2024-04-20 01:18 pmWNW 17.1 22.9----29.93-- 41.0----
2024-04-20 01:12 pm NW 20.0 22.9----29.93-- 41.0----
2024-04-20 01:06 pmWNW 15.0 22.0----29.93-- 41.0----
2024-04-20 01:00 pmWNW 12.0 17.1----29.93+0.04- 41.0----
2024-04-20 12:54 pmWNW 17.1 25.1----29.93-- 41.2----
2024-04-20 12:48 pm W 12.0 19.0----29.93-- 41.0----
2024-04-20 12:42 pm W 11.1 15.9----29.94-- 41.2----
2024-04-20 12:36 pm NW 17.1 27.0----29.94-- 41.0----
2024-04-20 12:30 pm NW 17.1 22.9----29.94-- 41.0----
2024-04-20 12:24 pmWNW 12.0 21.0----29.93-- 41.2----
2024-04-20 12:18 pmWNW 17.1 25.1----29.93-- 41.0----
2024-04-20 12:12 pmWNW 14.0 22.0----29.93-- 40.8----
2024-04-20 12:06 pmWNW 15.0 24.1----29.93-- 40.8----
2024-04-20 12:00 pmWNW 15.9 22.9----29.93+0.04- 41.0----
2024-04-20 11:54 amWNW 12.0 19.0----29.93-- 41.0----
2024-04-20 11:48 am W 11.1 19.0----29.93-- 41.0----
2024-04-20 11:42 amWNW 12.0 21.0----29.93-- 41.2----
2024-04-20 11:36 am W 13.0 20.0----29.92-- 41.2----
2024-04-20 11:30 am W 17.1 24.1----29.92-- 41.4----
2024-04-20 11:24 am W 8.9 15.9----29.92-- 41.7----
2024-04-20 11:18 am W 11.1 14.0----29.92-- 41.2----
2024-04-20 11:12 am W 8.9 14.0----29.92-- 41.2----
2024-04-20 11:06 am W 6.0 12.0----29.92-- 41.2----
2024-04-20 11:00 am W 9.9 19.0----29.92+0.05- 41.2----
2024-04-20 10:54 amWNW 13.0 17.1----29.92-- 41.2----
2024-04-20 10:48 amWNW 13.0 19.0----29.92-- 41.2----
2024-04-20 10:42 amWNW 15.9 21.0----29.91-- 41.2----
2024-04-20 10:36 amWNW 15.0 20.0----29.91-- 41.0----
2024-04-20 10:30 amWNW 11.1 17.1----29.91-- 41.0----
2024-04-20 10:24 amWNW 9.9 15.0----29.91-- 41.0----
2024-04-20 10:18 amWNW 12.0 15.9----29.91-- 41.0----
2024-04-20 10:12 amWNW 11.1 18.1----29.90-- 41.0----
2024-04-20 10:06 am W 15.9 22.0----29.90-- 41.0----
2024-04-20 10:00 amWNW 17.1 22.9----29.90+0.04- 41.2----
2024-04-20 09:54 amWNW 9.9 15.0----29.90-- 41.2----
2024-04-20 09:48 am W 8.9 15.0----29.90-- 41.5----
2024-04-20 09:42 amWNW 8.9 13.0----29.89-- 41.7----
2024-04-20 09:36 am W 9.9 14.0----29.89-- 41.9----
2024-04-20 09:30 am W 11.1 15.9----29.89-- 41.7----
2024-04-20 09:24 am W 9.9 15.0----29.88-- 41.7----
2024-04-20 09:18 am W 8.0 13.0----29.88-- 41.9----
2024-04-20 09:12 am W 8.9 14.0----29.88-- 41.9----
2024-04-20 09:06 am W 8.0 12.0----29.88-- 41.9----
2024-04-20 09:00 am W 7.0 13.0----29.88+0.03- 41.9----
2024-04-20 08:54 am W 5.1 11.1----29.88-- 41.9----
2024-04-20 08:48 am W 7.0 9.9----29.88-- 41.7----
2024-04-20 08:42 am W 5.1 14.0----29.88-- 41.7----
2024-04-20 08:36 am W 8.0 13.0----29.88-- 41.7----
2024-04-20 08:30 amWSW 5.1 13.0----29.88-- 41.9----
2024-04-20 08:24 am W 6.0 14.0----29.88-- 41.9----
2024-04-20 08:18 amWSW 8.0 12.0----29.88-- 41.9----
2024-04-20 08:12 amWSW 5.1 12.0----29.88-- 41.9----
2024-04-20 08:06 am W 6.0 11.1----29.88-- 41.9----
2024-04-20 08:00 am W 8.0 12.0----29.87+0.02- 41.7----
2024-04-20 07:54 am W 6.0 9.9----29.87-- 41.7----
2024-04-20 07:48 am W 6.0 8.9----29.87-- 41.7----
2024-04-20 07:42 am W 7.0 11.1----29.87-- 41.7----
2024-04-20 07:36 am W 5.1 9.9----29.87-- 41.7----
2024-04-20 07:30 amWSW 7.0 11.1----29.87-- 41.7----
2024-04-20 07:24 amWSW 5.1 11.1----29.87-- 41.7----
2024-04-20 07:18 am W 6.0 8.9----29.86-- 41.9----
2024-04-20 07:12 amWSW 4.1 8.0----29.86-- 41.9----
2024-04-20 07:06 am W 2.9 7.0----29.86-- 41.9----
2024-04-20 07:00 amWSW 5.1 8.9----29.86+0.01- 41.9----
2024-04-20 06:54 am W 5.1 8.9----29.86-- 41.9----
2024-04-20 06:48 amWSW 5.1 7.0----29.86-- 41.9----
2024-04-20 06:42 am W 5.1 8.0----29.86-- 41.9----
2024-04-20 06:36 am W 4.1 6.0----29.86-- 41.9----
2024-04-20 06:30 amWSW 4.1 8.0----29.85-- 42.1----
2024-04-20 06:24 am W 4.1 7.0----29.85-- 42.1----
2024-04-20 06:18 am W 6.0 8.0----29.85-- 42.1----
2024-04-20 06:12 am W 6.0 8.9----29.85-- 42.1----
2024-04-20 06:06 am W 6.0 8.9----29.85-- 42.1----
2024-04-20 06:00 amWSW 5.1 8.0----29.85+0.01- 42.1----
2024-04-20 05:54 am W 5.1 9.9----29.86-- 42.1----
2024-04-20 05:48 am W 6.0 11.1----29.86-- 42.1----
2024-04-20 05:42 am W 7.0 11.1----29.86-- 42.1----
2024-04-20 05:36 am W 6.0 9.9----29.86-- 42.1----
2024-04-20 05:30 am W 6.0 13.0----29.86-- 42.1----
2024-04-20 05:24 am W 7.0 11.1----29.85-- 41.9----
2024-04-20 05:18 am W 6.0 14.0----29.86-- 41.9----
2024-04-20 05:12 am W 6.0 13.0----29.86-- 41.9----
2024-04-20 05:06 am W 9.9 14.0----29.85-- 41.9----
2024-04-20 05:00 am W 5.1 13.0----29.85+0.00- 41.7----
2024-04-20 04:54 am W 8.0 9.9----29.85-- 41.7----
2024-04-20 04:48 am W 6.0 9.9----29.85-- 41.5----
2024-04-20 04:42 am W 7.0 12.0----29.85-- 41.5----
2024-04-20 04:36 am W 8.0 12.0----29.85-- 41.5----
2024-04-20 04:30 am W 5.1 9.9----29.85-- 41.7----
2024-04-20 04:24 am W 7.0 8.9----29.85-- 41.5----
2024-04-20 04:18 am W 5.1 8.0----29.85-- 41.5----
2024-04-20 04:12 am W 4.1 8.0----29.85-- 41.4----
2024-04-20 04:06 am W 5.1 7.0----29.85-- 41.5----
2024-04-20 04:00 am-------29.85+0.00- 41.4----
2024-04-20 03:54 am-------29.85-- 41.4----
2024-04-20 03:48 am W 4.1 7.0----29.85-- 41.4----
2024-04-20 03:42 am W 5.1 8.9----29.85-- 41.2----
2024-04-20 03:36 am W 2.9 6.0----29.85-- 41.4----
2024-04-20 03:30 am W 2.9 6.0----29.84-- 41.4----
2024-04-20 03:24 am W 4.1 6.0----29.85-- 41.4----
2024-04-20 03:18 am W 5.1 7.0----29.84-- 41.4----
2024-04-20 03:12 am W 4.1 8.0----29.84-- 41.4----
2024-04-20 03:06 am W 5.1 7.0----29.84-- 41.5----
2024-04-20 03:00 am W 4.1 7.0----29.85+0.00- 41.5----
2024-04-20 02:54 am W 4.1 6.0----29.85-- 41.7----
2024-04-20 02:48 am W 5.1 7.0----29.85-- 41.9----
2024-04-20 02:42 am W 4.1 6.0----29.85-- 42.1----
2024-04-20 02:36 am W 5.1 8.9----29.85-- 42.1----
2024-04-20 02:30 am W 6.0 9.9----29.85-- 41.9----
2024-04-20 02:24 am W 5.1 8.9----29.85-- 42.1----
2024-04-20 02:18 am W 4.1 7.0----29.85-- 41.9----
2024-04-20 02:12 am W 4.1 8.9----29.85-- 41.9----
2024-04-20 02:06 am W 6.0 8.0----29.85-- 42.1----
2024-04-20 02:00 am W 5.1 9.9----29.85+0.00- 42.1----
2024-04-20 01:54 am W 6.0 8.9----29.85-- 42.1----
2024-04-20 01:48 am W 5.1 7.0----29.85-- 42.1----
2024-04-20 01:42 am W 4.1 8.9----29.85-- 42.1----
2024-04-20 01:36 am W 5.1 7.0----29.85-- 42.1----
2024-04-20 01:30 am W 5.1 8.0----29.85-- 42.3----
2024-04-20 01:24 am W 8.0 9.9----29.85-- 42.3----
2024-04-20 01:18 am W 6.0 8.9----29.85-- 42.3----
2024-04-20 01:12 am W 6.0 8.0----29.85-- 42.3----
2024-04-20 01:06 am W 7.0 8.9----29.85-- 42.3----
2024-04-20 01:00 am W 5.1 8.9----29.85-0.01- 42.3----
2024-04-20 12:54 am W 6.0 8.0----29.85-- 42.3----
2024-04-20 12:48 am W 4.1 7.0----29.85-- 42.3----
2024-04-20 12:42 am W 4.1 7.0----29.85-- 42.3----
2024-04-20 12:36 am W 5.1 8.0----29.85-- 42.3----
2024-04-20 12:30 am W 6.0 8.9----29.85-- 42.3----
2024-04-20 12:24 am W 4.1 6.0----29.85-- 42.3----
2024-04-20 12:18 am W 5.1 8.0----29.85-- 42.1----
2024-04-20 12:12 am W 5.1 8.9----29.85-- 42.1----
2024-04-20 12:06 am W 5.1 8.0----29.85-- 42.1----
2024-04-20 12:00 am W 5.1 7.0----29.85+0.00- 42.3----
2024-04-19 11:54 pm W 5.1 7.0----29.85-- 42.3----
2024-04-19 11:48 pm W 5.1 8.0----29.85-- 42.3----
2024-04-19 11:42 pm W 5.1 8.0----29.85-- 42.3----
2024-04-19 11:36 pm W 5.1 8.0----29.86-- 42.3----
2024-04-19 11:30 pm W 4.1 8.0----29.85-- 42.3----
2024-04-19 11:24 pm W 5.1 7.0----29.85-- 42.3----
2024-04-19 11:18 pm W 5.1 8.0----29.85-- 42.3----
2024-04-19 11:12 pm W 4.1 5.1----29.85-- 42.3----
2024-04-19 11:06 pm W 2.9 4.1----29.86-- 42.3----
2024-04-19 11:00 pm W 1.9 4.1----29.86+0.02- 42.1----
2024-04-19 10:54 pm W 2.9 5.1----29.86-- 42.1----
2024-04-19 10:48 pm W 4.1 5.1----29.86-- 42.1----
2024-04-19 10:42 pm W 2.9 4.1----29.86-- 42.1----
2024-04-19 10:36 pmWSW 2.9 4.1----29.86-- 42.1----
2024-04-19 10:30 pmWSW 2.9 4.1----29.86-- 42.1----
2024-04-19 10:24 pmWSW 2.9 4.1----29.86-- 42.1----
2024-04-19 10:18 pmWSW 2.9 4.1----29.86-- 42.1----
2024-04-19 10:12 pm W 2.9 5.1----29.86-- 41.9----
2024-04-19 10:06 pm W 2.9 5.1----29.86-- 41.9----
2024-04-19 10:00 pm W 4.1 6.0----29.86+0.02- 41.9----
2024-04-19 09:54 pm W 2.9 5.1----29.86-- 41.9----